Simultaneous Nadir Overpasses (SNOs) Predictions

Prediction of SNOs between METOP-B and TERRA Satellite Orbit:

Table of predicted SNOs for the next 14.0 days since TLE Epoch: 1/13/2016
Index Date (METOP-B) Time (METOP-B) Lat,Lon (METOP-B) SZA (METOP-B ) Date (TERRA) Time (TERRA) Lat,Lon (TERRA) SZA (TERRA ) Distance(km) Time Diff (sec)
1 01/15/2016 01:06:56 -81.35, 31.30 74.94 01/15/2016 01:07:31 -81.35, 31.18 74.94 1.99 35
2 01/15/2016 01:57:36 81.35,-161.14 105.09 01/15/2016 01:56:57 81.35,-161.07 105.08 1.33 39
3 01/17/2016 20:41:17 -81.35, 97.52 75.51 01/17/2016 20:41:47 -81.34, 97.45 75.51 1.44 30
4 01/17/2016 21:31:56 81.35, -94.54 104.55 01/17/2016 21:31:12 81.36, -94.43 104.55 2.07 44
5 01/20/2016 16:15:37 -81.35, 164.10 76.09 01/20/2016 16:16:02 -81.34, 164.01 76.10 1.55 25
6 01/
